Simultaneous Nadir Overpasses (SNOs) Predictions

Prediction of SNOs between GOES-15 and LANDSAT-8 Satellite Orbit:

Table of predicted SNOs for the next 14.0 days since TLE Epoch: 7/29/2023
Index Date Time (GOES-15) GOES-15 Lat,Lon LANDSAT-8 Lat,Lon Distance(km) Time Diff (sec)
1 07/30/2023 23:20:44 0.05, 161.20 -0.22, 162.48 145.94 80
2 07/31/2023 11:44:49 -0.10, 160.71 -0.86, 157.28 390.81 80
3 08/02/2023 11:30:06 -0.07, 158.71 0.22, 160.14 162.52 80
4 08/02/2023 23:54:03 0.11, 158.15 0.80, 154.97 361.86 80
5 08/04/2023 23:39:20 0.08, 156.14 -0.29, 157.83 192.32 80
6 08/05/2023 12:03:24 -0.13, 155.65 -0.77, 152.63 343.91 80
7 08/07/2023 11:48:41 -0.10, 153.64 0.28, 155.50 210.88 80
8 08/08/2023 00:12:37 0.15, 153.08 0.73, 150.32 313.30 80
9 08/09/2023 23:57:53 0.12, 151.06 -0.34, 153.19 241.98 80
10 08/10/2023 12:21:58 -0.17, 150.58 -0.72, 147.99 293.85 80
